YZ-1 R/B, 41929

Orbit data source: Space-Track

YZ-1 R/B, 41929 is space debris in HEO originally from a launch on Mon, 30 Mar 2015 UTC launched from the Xichang Space Center, China (XSC). Debris objects in space refer to the collection of defunct objects orbiting the Earth. Examples of debris include non-operational satellites, rocket bodies, and fragments generated from explosions, collisions, or faulty payload assembly.

Loading next visibility...
Identifier
41929, 2015-019C
Orbit
HEO
Country
Flag of CNCN / PRC
Related business
Manufacturer
CALT
Mission
Spacecraft
Bus & Motor
YZ-1, Unknown motor
Mass
2,075 kg wet, 2,075 kg dry
Launch date (UTC)
2015-03-30 (11 years ago)
Launch vehicle
Unknown
Launch site
Xichang Space Center, China (XSC)
Object type
Payload
Rocket body
Debris
Shape & HBR
Double Cone, 2.0 m
Radar Cross Section
5.890 m², Large (>1 m²)

Expand to show TLE details & history
Last TLE update: in 17 hours

TLE from in 17 hours
0 YZ-1 R/B
1 41929U 15019C   26174.17025745 -.00000479  00000-0  00000+0 0  9992
2 41929  14.4923  90.6460 6936683 311.5763   1.3896  0.27922464 10792
Epoch: 2026-06-23T04:05Z
TLE epoch observation values (Epoch: 2026-06-23T04:05:10.243Z)
Latitude
-10.15479°
Longitude
74.02109°
Altitude
24,000.042 km
Speed
4.713 km/s
True Right ascension
03h 06m 38s
True Declination
-10° 08' 27"
Sunlit
Object was in daylight at epoch
Visualization orbit readout
Latitude
Unknown
Longitude
Unknown
Altitude
Unknown
Speed
Unknown
Apparent Right ascension
Unknown
Apparent Declination
Unknown
Sunlit
N/A
Visualization observer readout
Local Sidereal Time
21:39:13
Azimuth
Unknown
Elevation
Unknown
Doppler factor
Unknown
Orbital elements
Apogee altitude
161,090.203 km
Perigee altitude
23,911.656 km
Semi-major axis
98,879.067 km
Eccentricity
0.69367
Inclination
14.4923°
RAAN
90.646°
Arg. of periapsis
311.5763°
True anomaly
10.61637°
Mean anomaly
1.3896°
Eccentric anomaly
4.52561°
Mean motion
0.06981 °/min
Orbital period
5,157.22 mins
BSTAR
0
Loading maneuver chart data...
Computing Atmospheric mass density...
Loading historical data...
Loading historical data...
Loading historical data...
Loading historical data...
Loading historical data...
Loading historical data...
Loading historical data...
Other satellites on launch #19 in the year 2015 (2015-03-30 UTC)

Documentation

Showing up to 5 results
|